Location: Stuart
(27.1975°N, 80.2528°W)
Time: 18:03:51
(UTC-04:00)

ISS - Visible Passes

Search period start: 06 April 2020 00:00
Search period end: 16 April 2020 00:00
Orbit: 418 x 423 km, 51.6° (Epoch: 07 April)

Date Brightness Start Highest point End Pass type
(mag) Time Alt. Az. Time Alt. Az. Time Alt. Az.
06 Apr -2.2 20:33:34 10° NNW 20:36:17 23° NE 20:37:26 19° ENE visible
07 Apr -2.6 21:22:46 10° WNW 21:25:39 38° WSW 21:25:39 38° WSW visible
08 Apr -3.8 20:35:27 10° NW 20:38:49 87° SW 20:40:58 21° SE visible
10 Apr -1.3 20:38:36 10° W 20:41:03 19° SW 20:43:30 10° S visible
